EN

Hourly Weather Barka'

Today, 16 September, Thursday

Time Temperature Precipitation Wind Pressure Humidity
00:00 +34°C° 0 mm 2 mps 750 mmHg 42%
01:00 +32°C° 0 mm 2 mps 749 mmHg 44%
02:00 +32°C° 0 mm 2 mps 749 mmHg 40%
03:00 +32°C° 0 mm 2 mps 749 mmHg 36%
04:00 +34°C° 0 mm 2 mps 749 mmHg 34%
05:00 +34°C° 0 mm 2 mps 750 mmHg 36%
06:00 +33°C° 0 mm 1 mps 750 mmHg 38%
07:00 +34°C° 0 mm 1 mps 751 mmHg 40%
08:00 +36°C° 0 mm 1 mps 751 mmHg 36%
09:00 +37°C° 0 mm 1 mps 751 mmHg 31%
10:00 +40°C° 0 mm 2 mps 751 mmHg 27%
11:00 +42°C° 0 mm 3 mps 751 mmHg 25%
12:00 +43°C° 0 mm 3 mps 750 mmHg 23%
13:00 +43°C° 0 mm 4 mps 749 mmHg 21%
14:00 +43°C° 0 mm 4 mps 749 mmHg 23%
15:00 +42°C° 0 mm 4 mps 749 mmHg 24%
16:00 +40°C° 0 mm 3 mps 749 mmHg 26%
17:00 +39°C° 0 mm 3 mps 749 mmHg 29%
18:00 +37°C° 0 mm 3 mps 749 mmHg 33%
19:00 +36°C° 0 mm 2 mps 749 mmHg 36%
20:00 +36°C° 0 mm 2 mps 749 mmHg 34%
21:00 +36°C° 0 mm 2 mps 749 mmHg 32%
22:00 +36°C° 0 mm 2 mps 749 mmHg 29%
23:00 +35°C° 0 mm 2 mps 749 mmHg 33%

Tomorrow, 17 September, Friday

Time Temperature Precipitation Wind Pressure Humidity
00:00 +33°C° 0 mm 1 mps 749 mmHg 36%
01:00 +32°C° 0 mm 1 mps 748 mmHg 40%
02:00 +32°C° 0 mm 1 mps 748 mmHg 36%
03:00 +33°C° 0 mm 1 mps 748 mmHg 32%
04:00 +33°C° 0 mm 1 mps 748 mmHg 29%
05:00 +34°C° 0 mm 2 mps 749 mmHg 29%
06:00 +35°C° 0 mm 2 mps 749 mmHg 29%
07:00 +35°C° 0 mm 3 mps 750 mmHg 30%
08:00 +37°C° 0 mm 2 mps 750 mmHg 27%
09:00 +39°C° 0 mm 2 mps 750 mmHg 25%
10:00 +41°C° 0 mm 2 mps 750 mmHg 22%
11:00 +42°C° 0 mm 3 mps 750 mmHg 21%
12:00 +43°C° 0 mm 3 mps 749 mmHg 20%
13:00 +43°C° 0 mm 4 mps 748 mmHg 19%
14:00 +43°C° 0 mm 4 mps 748 mmHg 22%
15:00 +42°C° 0 mm 4 mps 748 mmHg 24%
16:00 +41°C° 0 mm 5 mps 748 mmHg 26%
17:00 +40°C° 0 mm 4 mps 748 mmHg 29%
18:00 +37°C° 0 mm 4 mps 749 mmHg 32%
19:00 +36°C° 0 mm 3 mps 749 mmHg 36%
20:00 +36°C° 0 mm 3 mps 749 mmHg 33%
21:00 +36°C° 0 mm 3 mps 749 mmHg 30%
22:00 +36°C° 0 mm 3 mps 749 mmHg 26%
23:00 +36°C° 0 mm 2 mps 749 mmHg 28%

Day after tomorrow, 18 September, Saturday

Time Temperature Precipitation Wind Pressure Humidity
00:00 +35°C° 0 mm 2 mps 749 mmHg 30%
01:00 +34°C° 0 mm 1 mps 748 mmHg 32%
02:00 +33°C° 0 mm 1 mps 749 mmHg 39%
03:00 +32°C° 0 mm 1 mps 749 mmHg 45%
04:00 +31°C° 0 mm 1 mps 749 mmHg 52%
05:00 +32°C° 0 mm 1 mps 750 mmHg 49%
06:00 +33°C° 0 mm 1 mps 751 mmHg 46%
07:00 +33°C° 0 mm 1 mps 751 mmHg 43%
08:00 +36°C° 0 mm 2 mps 751 mmHg 38%
09:00 +38°C° 0 mm 2 mps 752 mmHg 33%
10:00 +40°C° 0 mm 3 mps 752 mmHg 28%
11:00 +40°C° 0 mm 3 mps 751 mmHg 28%
12:00 +41°C° 0 mm 4 mps 751 mmHg 28%
13:00 +42°C° 0 mm 4 mps 750 mmHg 29%
14:00 +41°C° 0 mm 4 mps 750 mmHg 31%
15:00 +41°C° 0 mm 4 mps 750 mmHg 34%
16:00 +40°C° 0 mm 5 mps 749 mmHg 36%
17:00 +37°C° 0 mm 4 mps 750 mmHg 42%
18:00 +36°C° 0 mm 3 mps 750 mmHg 48%
19:00 +34°C° 0 mm 2 mps 750 mmHg 53%
20:00 +34°C° 0 mm 2 mps 750 mmHg 49%
21:00 +33°C° 0 mm 1 mps 751 mmHg 46%
22:00 +33°C° 0 mm 1 mps 751 mmHg 42%
23:00 +34°C° 0 mm 2 mps 751 mmHg 47%

19 September, Sunday

Time Temperature Precipitation Wind Pressure Humidity
00:00 +32°C° 0 mm 2 mps 751 mmHg 52%
01:00 +31°C° 0 mm 2 mps 751 mmHg 58%
02:00 +31°C° 0 mm 2 mps 751 mmHg 60%
03:00 +31°C° 0 mm 2 mps 751 mmHg 62%
04:00 +30°C° 0 mm 1 mps 751 mmHg 64%
05:00 +31°C° 0 mm 1 mps 752 mmHg 60%
06:00 +32°C° 0 mm 1 mps 752 mmHg 55%
07:00 +32°C° 0 mm 1 mps 753 mmHg 51%
08:00 +34°C° 0 mm 1 mps 753 mmHg 45%
09:00 +37°C° 0 mm 2 mps 753 mmHg 38%
10:00 +39°C° 0 mm 2 mps 753 mmHg 31%
11:00 +39°C° 0 mm 3 mps 752 mmHg 32%
12:00 +41°C° 0 mm 4 mps 752 mmHg 33%
13:00 +41°C° 0 mm 5 mps 752 mmHg 34%
14:00 +41°C° 0 mm 5 mps 751 mmHg 36%
15:00 +40°C° 0 mm 4 mps 751 mmHg 37%
16:00 +40°C° 0 mm 4 mps 751 mmHg 39%
17:00 +37°C° 0 mm 4 mps 751 mmHg 46%
18:00 +35°C° 0 mm 3 mps 751 mmHg 53%
19:00 +33°C° 0 mm 3 mps 751 mmHg 59%
20:00 +32°C° 0 mm 2 mps 751 mmHg 57%
21:00 +32°C° 0 mm 2 mps 751 mmHg 56%
22:00 +32°C° 0 mm 2 mps 752 mmHg 54%
23:00 +32°C° 0 mm 1 mps 752 mmHg 58%

20 September, Monday

Time Temperature Precipitation Wind Pressure Humidity
00:00 +31°C° 0 mm 1 mps 752 mmHg 62%
01:00 +30°C° 0 mm 1 mps 751 mmHg 67%
02:00 +30°C° 0 mm 1 mps 751 mmHg 67%
03:00 +30°C° 0 mm 1 mps 751 mmHg 68%
04:00 +29°C° 0 mm 1 mps 751 mmHg 69%
05:00 +30°C° 0 mm 1 mps 752 mmHg 65%
06:00 +31°C° 0 mm 1 mps 752 mmHg 61%
07:00 +32°C° 0 mm 1 mps 753 mmHg 57%
08:00 +34°C° 0 mm 2 mps 753 mmHg 50%
09:00 +36°C° 0 mm 2 mps 753 mmHg 43%
10:00 +38°C° 0 mm 3 mps 753 mmHg 37%
11:00 +39°C° 0 mm 3 mps 752 mmHg 36%
12:00 +40°C° 0 mm 4 mps 752 mmHg 35%
13:00 +41°C° 0 mm 4 mps 751 mmHg 34%
14:00 +41°C° 0 mm 4 mps 751 mmHg 35%
15:00 +40°C° 0 mm 4 mps 750 mmHg 36%
16:00 +40°C° 0 mm 4 mps 750 mmHg 36%
17:00 +37°C° 0 mm 3 mps 750 mmHg 42%
18:00 +36°C° 0 mm 3 mps 750 mmHg 48%
19:00 +34°C° 0 mm 3 mps 750 mmHg 53%
20:00 +34°C° 0 mm 2 mps 750 mmHg 50%
21:00 +33°C° 0 mm 1 mps 751 mmHg 48%
22:00 +33°C° 0 mm 1 mps 751 mmHg 45%
23:00 +32°C° 0 mm 1 mps 751 mmHg 49%

21 September, Tuesday

Time Temperature Precipitation Wind Pressure Humidity
00:00 +31°C° 0 mm 1 mps 750 mmHg 54%
01:00 +29°C° 0 mm 0 mps 750 mmHg 58%
02:00 +30°C° 0 mm 1 mps 750 mmHg 58%
03:00 +30°C° 0 mm 1 mps 750 mmHg 59%
04:00 +30°C° 0 mm 1 mps 750 mmHg 59%
05:00 +31°C° 0 mm 1 mps 751 mmHg 56%
06:00 +30°C° 0 mm 0 mps 751 mmHg 52%
07:00 +30°C° 0 mm 0 mps 751 mmHg 49%
08:00 +34°C° 0 mm 1 mps 751 mmHg 43%
09:00 +36°C° 0 mm 1 mps 752 mmHg 38%
10:00 +39°C° 0 mm 2 mps 752 mmHg 32%
11:00 +39°C° 0 mm 3 mps 751 mmHg 31%
12:00 +40°C° 0 mm 3 mps 750 mmHg 30%
13:00 +42°C° 0 mm 4 mps 750 mmHg 29%
14:00 +41°C° 0 mm 4 mps 749 mmHg 31%
15:00 +40°C° 0 mm 4 mps 749 mmHg 33%
16:00 +39°C° 0 mm 3 mps 749 mmHg 35%
17:00 +37°C° 0 mm 3 mps 749 mmHg 40%
18:00 +36°C° 0 mm 3 mps 749 mmHg 45%
19:00 +34°C° 0 mm 2 mps 749 mmHg 50%
20:00 +34°C° 0 mm 2 mps 749 mmHg 46%
21:00 +34°C° 0 mm 2 mps 749 mmHg 42%
22:00 +34°C° 0 mm 1 mps 749 mmHg 38%
23:00 +33°C° 0 mm 1 mps 749 mmHg 39%
Show more

We Need Your Consent

Meteoprog and our Service Providers may store and access personal data such as cookies, device identifiers or other similar technologies on your device and process such data to personalise content and ads, as well as provide social media features and to analyse the traffic.

  • Store and/or access information on your device

    Cookies, device identifiers or other information can be stored or accessed on your device for the purposes indicated above.

  • Personalised ads and content, ad and content measurement, audience insights, and products development

    Ads and content can be personalised based on a profile. More data can be added to better personalise ads and content. Ad and content performance can be measured. Insights about the audience who saw the ads and content can be derived. Such data can be used to develop or improve user’s experience, systems and software.

By clicking ‘I Agree’ you will allow the use of indicated cookies, device identifiers, web beacons or other similar technologies. Your settings can be changed in the browser on your device.

For certain purposes, legitimate interests may be relied on, rather than consent. You can read more about this in our Privacy and Cookie Policy.